User: anonymous   Login
Location: *
(46.4833°N, 7.6667°E)
Time: 16:16:48
(UTC+00:00)
Language:

Timation 2 Rocket - Orbit

View from above orbital plane
View from above orbital plane
View from above satellite
View from above satellite

Ground track
Ground track

The orbit data is extracted from the following two-line orbital elements,

1  4159U 69082AB  20151.53396743 -.00000004 +00000-0 +47686-4 0  9993
2  4159 069.9620 096.4873 0116077 189.3394 170.5542 13.72439877535591
Epoch (UTC): 30 May 2020 12:48:54
Eccentricity: 0.0116077
inclination: 69.9620°
perigee height: 905 km
apogee height: 1076 km
right ascension of ascending node: 96.4873°
argument of perigee: 189.3394°
revolutions per day: 13.72439877
mean anomaly at epoch: 170.5542°
orbit number at epoch: 53559

The dashed part of the orbit path shows where the satellite is in the earth's shadow,  

DLR